Погода в Алексеевке

Украина / Харьковская область     48°45′12″N   36°19′33″E
темп.,
°C
ветер,
м/с
пор.,
м/с
влажн.,
%
обл.,
%
осадки,
мм/ч
давл.,
гПа
погр.,
м
20 сентября, пн
пн2000:00+16ююз22659 0.0 100813
03:00+14юз3473100 0.0 100864
06:00+13з3681100 0.1 1008198
09:00+13з576698 0.1 1010483
12:00+16зюз7945100 0.0 10101137
15:00+17зюз8114199 0.0 10102040
18:00+15з574599 0.0 10111104
21:00+11з3560100 0.0 1013103
21 сентября, вт
вт2100:00+11з2567100 0.0 1013407
03:00+10зюз347582 0.0 1013279
06:00+11зюз3477100 0.0 1013413
09:00+11зюз4575100 0.0 1013601
12:00+13з575997 0.1 10131371
15:00+12зсз666698 0.5 10141105
18:00+9зсз5771100 0.1 1015602
21:00+9з4773100 0.1 1015639
22 сентября, ср
ср2200:00+8з4775100 0.0 1015642
03:00+7з5881100 0.0 1014810
06:00+7з4781100 0.0 1014939
09:00+7з4682100 0.1 1014696
12:00+8з5678100 0.1 1015913
15:00+10зсз566299 0.1 10141170
18:00+9з4562100 0.0 1015955
21:00+8зюз2475100 0.0 1016326
23 сентября, чт
чт2300:00+8юз2378100 0.0 1015287
03:00+7ююз1178100 0.0 101556
06:00+7ююв2377100 0.0 1014134
09:00+9ю2367100 0.0 1014865
12:00+9юз2370100 0.1 1014992
15:00+11юз236093 0.1 1014943
18:00+11сз235799 0.1 1013535
21:00+7сз357471 0.1 101483
24 сентября, пт
пт2400:00+6ссз348437 0.0 101457
03:00+5ссз238856 0.0 101466
06:00+4зсз22915 0.0 101428
09:00+8зюз23655 0.0 1013416
12:00+13зюз45415 0.0 10121489
15:00+15юз7937100 0.0 10101755
18:00+14юз71243100 0.0 10091469
21:00+11юз91682100 1.2 10091081